This is the latest recevied weather packets stored in our database for station/object M0XDC. If no packets are shown the sender has not sent any weather packets the latest 10 day(s).
| Time | Temp. | Humidity | Pressure | Rain* | Wind** | Luminosity | Snow |
|---|---|---|---|---|---|---|---|
| 1778118274 | 7.22° C | 84% | 1012.8 hPa | 0 mm | - | - | - |
| 1778116474 | 7.78° C | 83% | 1012.6 hPa | 0 mm | - | - | - |
| 1778114674 | 8.33° C | 82% | 1012.8 hPa | 0 mm | - | - | - |
| 1778112874 | 8.33° C | 81% | 1013 hPa | 0 mm | - | - | - |
| 1778111074 | 8.89° C | 82% | 1012.9 hPa | 0 mm | - | - | - |
| 1778109274 | 8.89° C | 82% | 1012.7 hPa | 0 mm | - | - | - |
| 1778107473 | 8.89° C | 81% | 1012.6 hPa | 0 mm | - | - | - |
| 1778105674 | 9.44° C | 80% | 1012.6 hPa | 0 mm | - | - | - |
| 1778103874 | 9.44° C | 79% | 1012.6 hPa | 0 mm | - | - | - |
| 1778102074 | 9.44° C | 79% | 1012.3 hPa | 0 mm | - | - | - |
| 1778100274 | 9.44° C | 77% | 1012.2 hPa | 0 mm | - | - | - |
| 1778098474 | 9.44° C | 74% | 1012 hPa | 0 mm | - | - | - |
| 1778096674 | 10° C | 70% | 1011.8 hPa | 0 mm | - | - | - |
| 1778094874 | 10.56° C | 67% | 1011.5 hPa | 0 mm | - | - | - |
| 1778093074 | 11.11° C | 70% | 1011.2 hPa | 0 mm | - | - | - |
| 1778091274 | 11.11° C | 68% | 1011.1 hPa | 0 mm | - | - | - |
| 1778089474 | 11.67° C | 63% | 1010.6 hPa | 0 mm | - | - | - |
| 1778087674 | 11.67° C | 63% | 1010.7 hPa | 0 mm | - | - | - |
| 1778085874 | 11.67° C | 62% | 1010.7 hPa | 0 mm | - | - | - |
| 1778084074 | 11.11° C | 63% | 1010.7 hPa | 0 mm | - | - | - |
| 1778082274 | 11.67° C | 65% | 1010.7 hPa | 0 mm | - | - | - |
| 1778080474 | 11.67° C | 63% | 1010.6 hPa | 0 mm | - | - | - |
| 1778078674 | 12.22° C | 62% | 1010.6 hPa | 0 mm | - | - | - |
| 1778076874 | 11.67° C | 64% | 1010.5 hPa | 0 mm | - | - | - |
| 1778075074 | 13.89° C | 59% | 1010.5 hPa | 0 mm | - | - | - |
* Rain latest hour (hover to see other rain measurements)
** Current wind speed in m/s (hover to see current wind gust speed)